Year,Month,Day,Hour,Minute,Value (Times are PST for windgust in km/hr)
2020,08,08,00,11,1.60
2020,08,08,01,05,1.60
2020,08,08,01,06,1.60
2020,08,08,01,07,1.60
2020,08,08,01,08,1.60
2020,08,08,01,09,1.60
2020,08,08,01,10,3.20
2020,08,08,01,11,1.60
2020,08,08,01,12,1.60
2020,08,08,01,13,1.60
2020,08,08,01,14,1.60
2020,08,08,01,15,1.60
2020,08,08,01,16,3.20
2020,08,08,01,17,1.60
2020,08,08,01,18,1.60
2020,08,08,01,19,1.60
2020,08,08,01,28,1.60
2020,08,08,01,31,1.60
2020,08,08,01,32,1.60
2020,08,08,01,33,3.20
2020,08,08,01,34,1.60
2020,08,08,01,35,1.60
2020,08,08,01,36,3.20
2020,08,08,01,37,1.60
2020,08,08,01,38,1.60
2020,08,08,01,55,1.60
2020,08,08,01,56,1.60
2020,08,08,01,57,1.60
2020,08,08,01,58,1.60
2020,08,08,02,09,1.60
2020,08,08,02,10,1.60
2020,08,08,02,11,1.60
2020,08,08,02,12,1.60
2020,08,08,02,13,1.60
2020,08,08,02,21,3.20
2020,08,08,02,22,3.20
2020,08,08,02,23,3.20
2020,08,08,02,24,4.80
2020,08,08,02,25,4.80
2020,08,08,02,26,4.80
2020,08,08,02,27,4.80
2020,08,08,02,28,4.80
2020,08,08,02,29,4.80
2020,08,08,02,30,6.40
2020,08,08,02,31,1.60
2020,08,08,02,33,1.60
2020,08,08,02,35,1.60
2020,08,08,02,36,1.60
2020,08,08,02,37,1.60
2020,08,08,02,38,1.60
2020,08,08,02,39,1.60
2020,08,08,02,40,1.60
2020,08,08,02,41,1.60
2020,08,08,02,51,1.60
2020,08,08,02,52,1.60
2020,08,08,02,54,1.60
2020,08,08,02,55,1.60
2020,08,08,02,56,1.60
2020,08,08,02,58,1.60
2020,08,08,02,59,1.60
2020,08,08,03,00,1.60
2020,08,08,03,01,1.60
2020,08,08,03,02,1.60
2020,08,08,03,03,1.60
2020,08,08,03,04,3.20
2020,08,08,03,05,1.60
2020,08,08,03,06,6.40
2020,08,08,03,07,6.40
2020,08,08,03,08,4.80
2020,08,08,03,09,3.20
2020,08,08,03,10,6.40
2020,08,08,03,11,3.20
2020,08,08,03,12,6.40
2020,08,08,03,13,8.10
2020,08,08,03,14,8.10
2020,08,08,03,15,4.80
2020,08,08,03,16,1.60
2020,08,08,03,17,3.20
2020,08,08,03,18,4.80
2020,08,08,03,19,6.40
2020,08,08,03,20,3.20
2020,08,08,03,21,3.20
2020,08,08,03,22,1.60
2020,08,08,03,23,6.40
2020,08,08,03,24,6.40
2020,08,08,03,25,1.60
2020,08,08,03,26,6.40
2020,08,08,03,27,4.80
2020,08,08,03,28,1.60
2020,08,08,03,29,6.40
2020,08,08,03,30,3.20
2020,08,08,03,31,3.20
2020,08,08,03,32,6.40
2020,08,08,03,33,4.80
2020,08,08,03,34,4.80
2020,08,08,03,35,4.80
2020,08,08,03,36,6.40
2020,08,08,03,37,6.40
2020,08,08,03,38,4.80
2020,08,08,03,39,3.20
2020,08,08,03,40,6.40
2020,08,08,03,41,4.80
2020,08,08,03,42,6.40
2020,08,08,03,43,6.40
2020,08,08,03,44,3.20
2020,08,08,03,45,3.20
2020,08,08,03,46,4.80
2020,08,08,03,47,6.40
2020,08,08,03,48,12.90
2020,08,08,03,49,6.40
2020,08,08,03,50,4.80
2020,08,08,03,51,4.80
2020,08,08,03,52,9.60
2020,08,08,03,53,8.10
2020,08,08,03,54,4.80
2020,08,08,03,55,6.40
2020,08,08,03,56,11.30
2020,08,08,03,57,11.30
2020,08,08,03,58,9.60
2020,08,08,03,59,9.60
2020,08,08,04,00,11.30
2020,08,08,04,01,11.30
2020,08,08,04,02,12.90
2020,08,08,04,03,9.60
2020,08,08,04,04,8.10
2020,08,08,04,08,8.10
2020,08,08,04,09,9.60
2020,08,08,04,10,11.30
2020,08,08,04,11,11.30
2020,08,08,04,12,9.60
2020,08,08,04,13,11.30
2020,08,08,04,14,14.50
2020,08,08,04,15,12.90
2020,08,08,04,16,11.30
2020,08,08,04,17,8.10
2020,08,08,04,18,11.30
2020,08,08,04,19,9.60
2020,08,08,04,20,9.60
2020,08,08,04,21,9.60
2020,08,08,04,22,11.30
2020,08,08,04,23,11.30
2020,08,08,04,24,11.30
2020,08,08,04,25,11.30
2020,08,08,04,26,12.90
2020,08,08,04,27,11.30
2020,08,08,04,28,8.10
2020,08,08,04,29,11.30
2020,08,08,04,30,8.10
2020,08,08,04,31,11.30
2020,08,08,04,32,9.60
2020,08,08,04,33,9.60
2020,08,08,04,34,11.30
2020,08,08,04,35,14.50
2020,08,08,04,36,9.60
2020,08,08,04,37,11.30
2020,08,08,04,38,9.60
2020,08,08,04,39,9.60
2020,08,08,04,40,9.60
2020,08,08,04,41,4.80
2020,08,08,04,42,8.10
2020,08,08,04,43,9.60
2020,08,08,04,44,6.40
2020,08,08,04,45,8.10
2020,08,08,04,46,6.40
2020,08,08,04,47,8.10
2020,08,08,04,48,8.10
2020,08,08,04,49,4.80
2020,08,08,04,50,8.10
2020,08,08,04,51,6.40
2020,08,08,04,52,6.40
2020,08,08,04,53,4.80
2020,08,08,04,54,9.60
2020,08,08,04,55,6.40
2020,08,08,04,56,8.10
2020,08,08,04,57,6.40
2020,08,08,04,58,6.40
2020,08,08,04,59,8.10
2020,08,08,05,00,6.40
2020,08,08,05,01,4.80
2020,08,08,05,02,3.20
2020,08,08,05,03,4.80
2020,08,08,05,04,6.40
2020,08,08,05,05,4.80
2020,08,08,05,06,6.40
2020,08,08,05,07,3.20
2020,08,08,05,08,6.40
2020,08,08,05,09,6.40
2020,08,08,05,10,3.20
2020,08,08,05,11,3.20
2020,08,08,05,12,1.60
2020,08,08,05,13,8.10
2020,08,08,05,14,1.60
2020,08,08,05,17,1.60
2020,08,08,05,18,1.60
2020,08,08,05,19,1.60
2020,08,08,05,20,1.60
2020,08,08,05,21,1.60
2020,08,08,05,22,6.40
2020,08,08,05,23,4.80
2020,08,08,05,24,1.60
2020,08,08,05,25,1.60
2020,08,08,05,28,1.60
2020,08,08,05,29,4.80
2020,08,08,05,30,1.60
2020,08,08,05,36,1.60
2020,08,08,05,37,1.60
2020,08,08,05,39,3.20
2020,08,08,05,40,3.20
2020,08,08,05,41,3.20
2020,08,08,05,42,1.60
2020,08,08,05,59,1.60
2020,08,08,06,00,1.60
2020,08,08,06,02,1.60
2020,08,08,06,03,3.20
2020,08,08,06,04,3.20
2020,08,08,06,08,1.60
2020,08,08,06,59,3.20
2020,08,08,07,00,3.20
2020,08,08,07,01,3.20
2020,08,08,07,02,1.60
2020,08,08,07,03,4.80
2020,08,08,07,04,4.80
2020,08,08,07,05,1.60
2020,08,08,07,06,3.20
2020,08,08,07,11,1.60
2020,08,08,07,12,1.60
2020,08,08,07,24,1.60
2020,08,08,07,25,1.60
2020,08,08,07,27,1.60
2020,08,08,07,28,1.60
2020,08,08,07,29,3.20
2020,08,08,07,30,3.20
2020,08,08,07,31,1.60
2020,08,08,07,32,4.80
2020,08,08,07,33,3.20
2020,08,08,07,34,1.60
2020,08,08,07,35,3.20
2020,08,08,07,36,3.20
2020,08,08,07,37,1.60
2020,08,08,07,38,1.60
2020,08,08,07,39,3.20
2020,08,08,07,40,4.80
2020,08,08,07,41,3.20
2020,08,08,07,42,3.20
2020,08,08,07,43,3.20
2020,08,08,07,44,1.60
2020,08,08,07,47,1.60
2020,08,08,07,48,1.60
2020,08,08,08,04,1.60
2020,08,08,08,06,1.60
2020,08,08,08,07,1.60
2020,08,08,08,09,1.60
2020,08,08,08,11,1.60
2020,08,08,08,15,1.60
2020,08,08,08,16,3.20
2020,08,08,08,17,1.60
2020,08,08,08,19,1.60
2020,08,08,08,20,3.20
2020,08,08,08,21,3.20
2020,08,08,08,22,1.60
2020,08,08,08,23,3.20
2020,08,08,08,24,3.20
2020,08,08,08,25,3.20
2020,08,08,08,26,1.60
2020,08,08,08,27,3.20
2020,08,08,08,28,1.60
2020,08,08,08,29,3.20
2020,08,08,08,30,4.80
2020,08,08,08,31,4.80
2020,08,08,08,32,3.20
2020,08,08,08,33,3.20
2020,08,08,08,34,3.20
2020,08,08,08,35,3.20
2020,08,08,08,36,4.80
2020,08,08,08,37,3.20
2020,08,08,08,38,3.20
2020,08,08,08,39,4.80
2020,08,08,08,40,1.60
2020,08,08,08,41,1.60
2020,08,08,08,42,1.60
2020,08,08,08,44,1.60
2020,08,08,08,45,1.60
2020,08,08,08,46,3.20
2020,08,08,08,47,3.20
2020,08,08,08,48,1.60
2020,08,08,08,49,1.60
2020,08,08,08,50,1.60
2020,08,08,08,51,3.20
2020,08,08,08,52,3.20
2020,08,08,08,53,3.20
2020,08,08,08,54,3.20
2020,08,08,08,55,3.20
2020,08,08,08,56,3.20
2020,08,08,08,57,3.20
2020,08,08,08,58,1.60
2020,08,08,08,59,3.20
2020,08,08,09,00,3.20
2020,08,08,09,01,1.60
2020,08,08,09,02,1.60
2020,08,08,09,03,1.60
2020,08,08,09,07,3.20
2020,08,08,09,09,1.60
2020,08,08,09,10,1.60
2020,08,08,09,13,3.20
2020,08,08,09,14,1.60
2020,08,08,09,15,1.60
2020,08,08,09,16,1.60
2020,08,08,09,18,1.60
2020,08,08,09,19,3.20
2020,08,08,09,20,1.60
2020,08,08,09,21,1.60
2020,08,08,09,22,1.60
2020,08,08,09,28,1.60
2020,08,08,09,29,1.60
2020,08,08,09,30,3.20
2020,08,08,09,31,1.60
2020,08,08,09,32,1.60
2020,08,08,09,33,1.60
2020,08,08,09,35,1.60
2020,08,08,09,36,1.60
2020,08,08,09,38,4.80
2020,08,08,09,39,1.60
2020,08,08,09,40,1.60
2020,08,08,09,41,1.60
2020,08,08,09,43,1.60
2020,08,08,09,44,1.60
2020,08,08,09,47,1.60
2020,08,08,09,48,1.60
2020,08,08,09,49,1.60
2020,08,08,09,51,1.60
2020,08,08,09,52,1.60
2020,08,08,09,53,3.20
2020,08,08,09,54,4.80
2020,08,08,09,55,4.80
2020,08,08,09,56,1.60
2020,08,08,09,57,6.40
2020,08,08,09,58,4.80
2020,08,08,09,59,1.60
2020,08,08,10,00,3.20
2020,08,08,10,02,1.60
2020,08,08,10,03,1.60
2020,08,08,10,04,1.60
2020,08,08,10,05,1.60
2020,08,08,10,06,1.60
2020,08,08,10,07,3.20
2020,08,08,10,08,1.60
2020,08,08,10,10,3.20
2020,08,08,10,11,1.60
2020,08,08,10,12,3.20
2020,08,08,10,13,1.60
2020,08,08,10,14,1.60
2020,08,08,10,16,3.20
2020,08,08,10,17,3.20
2020,08,08,10,18,3.20
2020,08,08,10,19,6.40
2020,08,08,10,20,4.80
2020,08,08,10,21,3.20
2020,08,08,10,22,3.20
2020,08,08,10,23,3.20
2020,08,08,10,24,4.80
2020,08,08,10,25,1.60
2020,08,08,10,26,1.60
2020,08,08,10,27,1.60
2020,08,08,10,28,1.60
2020,08,08,10,29,3.20
2020,08,08,10,30,3.20
2020,08,08,10,31,1.60
2020,08,08,10,32,3.20
2020,08,08,10,33,3.20
2020,08,08,10,34,3.20
2020,08,08,10,35,4.80
2020,08,08,10,36,8.10
2020,08,08,10,37,9.60
2020,08,08,10,38,8.10
2020,08,08,10,39,8.10
2020,08,08,10,40,8.10
2020,08,08,10,41,4.80
2020,08,08,10,42,4.80
2020,08,08,10,43,3.20
2020,08,08,10,44,4.80
2020,08,08,10,45,4.80
2020,08,08,10,46,1.60
2020,08,08,10,47,8.10
2020,08,08,10,48,8.10
2020,08,08,10,49,9.60
2020,08,08,10,50,3.20
2020,08,08,10,51,1.60
2020,08,08,10,52,3.20
2020,08,08,10,53,4.80
2020,08,08,10,54,6.40
2020,08,08,10,55,3.20
2020,08,08,10,56,1.60
2020,08,08,10,57,3.20
2020,08,08,10,58,4.80
2020,08,08,10,59,3.20
2020,08,08,11,00,6.40
2020,08,08,11,01,4.80
2020,08,08,11,02,3.20
2020,08,08,11,03,3.20
2020,08,08,11,04,9.60
2020,08,08,11,05,9.60
2020,08,08,11,06,8.10
2020,08,08,11,07,4.80
2020,08,08,11,08,8.10
2020,08,08,11,09,8.10
2020,08,08,11,10,4.80
2020,08,08,11,11,9.60
2020,08,08,11,12,8.10
2020,08,08,11,13,6.40
2020,08,08,11,14,6.40
2020,08,08,11,15,6.40
2020,08,08,11,16,8.10
2020,08,08,11,17,11.30
2020,08,08,11,18,9.60
2020,08,08,11,19,6.40
2020,08,08,11,20,4.80
2020,08,08,11,21,3.20
2020,08,08,11,22,4.80
2020,08,08,11,23,1.60
2020,08,08,11,26,1.60
2020,08,08,11,27,6.40
2020,08,08,11,28,8.10
2020,08,08,11,29,3.20
2020,08,08,11,30,3.20
2020,08,08,11,31,6.40
2020,08,08,11,32,3.20
2020,08,08,11,33,4.80
2020,08,08,11,34,4.80
2020,08,08,11,35,1.60
2020,08,08,11,36,6.40
2020,08,08,11,37,4.80
2020,08,08,11,38,4.80
2020,08,08,11,39,8.10
2020,08,08,11,40,6.40
2020,08,08,11,41,6.40
2020,08,08,11,42,8.10
2020,08,08,11,43,8.10
2020,08,08,11,44,6.40
2020,08,08,11,45,4.80
2020,08,08,11,46,1.60
2020,08,08,11,47,3.20
2020,08,08,11,48,3.20
2020,08,08,11,49,1.60
2020,08,08,11,50,4.80
2020,08,08,11,51,3.20
2020,08,08,11,52,3.20
2020,08,08,11,53,4.80
2020,08,08,11,54,4.80
2020,08,08,11,55,3.20
2020,08,08,11,56,3.20
2020,08,08,11,57,1.60
2020,08,08,11,58,4.80
2020,08,08,11,59,8.10
2020,08,08,12,00,3.20
2020,08,08,12,01,4.80
2020,08,08,12,02,1.60
2020,08,08,12,03,4.80
2020,08,08,12,04,4.80
2020,08,08,12,05,8.10
2020,08,08,12,06,3.20
2020,08,08,12,07,3.20
2020,08,08,12,08,8.10
2020,08,08,12,09,6.40
2020,08,08,12,10,8.10
2020,08,08,12,11,9.60
2020,08,08,12,12,9.60
2020,08,08,12,13,8.10
2020,08,08,12,14,8.10
2020,08,08,12,15,8.10
2020,08,08,12,16,4.80
2020,08,08,12,17,1.60
2020,08,08,12,19,8.10
2020,08,08,12,20,6.40
2020,08,08,12,21,6.40
2020,08,08,12,22,6.40
2020,08,08,12,23,8.10
2020,08,08,12,24,6.40
2020,08,08,12,25,4.80
2020,08,08,12,26,4.80
2020,08,08,12,27,4.80
2020,08,08,12,28,6.40
2020,08,08,12,29,3.20
2020,08,08,12,30,4.80
2020,08,08,12,31,3.20
2020,08,08,12,32,9.60
2020,08,08,12,33,8.10
2020,08,08,12,34,3.20
2020,08,08,12,35,4.80
2020,08,08,12,36,8.10
2020,08,08,12,37,8.10
2020,08,08,12,38,8.10
2020,08,08,12,39,8.10
2020,08,08,12,40,6.40
2020,08,08,12,41,4.80
2020,08,08,12,42,4.80
2020,08,08,12,43,4.80
2020,08,08,12,44,4.80
2020,08,08,12,45,6.40
2020,08,08,12,46,6.40
2020,08,08,12,47,8.10
2020,08,08,12,48,6.40
2020,08,08,12,49,8.10
2020,08,08,12,50,6.40
2020,08,08,12,51,6.40
2020,08,08,12,52,6.40
2020,08,08,12,53,8.10
2020,08,08,12,54,12.90
2020,08,08,12,55,9.60
2020,08,08,12,56,8.10
2020,08,08,12,57,8.10
2020,08,08,12,58,11.30
2020,08,08,12,59,9.60
2020,08,08,13,00,11.30
2020,08,08,13,01,8.10
2020,08,08,13,02,8.10
2020,08,08,13,03,6.40
2020,08,08,13,04,8.10
2020,08,08,13,05,8.10
2020,08,08,13,06,6.40
2020,08,08,13,07,6.40
2020,08,08,13,08,6.40
2020,08,08,13,09,8.10
2020,08,08,13,10,9.60
2020,08,08,13,11,1.60
2020,08,08,13,12,3.20
2020,08,08,13,13,4.80
2020,08,08,13,14,4.80
2020,08,08,13,15,1.60
2020,08,08,13,16,1.60
2020,08,08,13,17,1.60
2020,08,08,13,18,3.20
2020,08,08,13,19,8.10
2020,08,08,13,20,9.60
2020,08,08,13,21,9.60
2020,08,08,13,22,8.10
2020,08,08,13,23,8.10
2020,08,08,13,24,12.90
2020,08,08,13,25,6.40
2020,08,08,13,26,12.90
2020,08,08,13,27,12.90
2020,08,08,13,28,8.10
2020,08,08,13,29,1.60
2020,08,08,13,30,8.10
2020,08,08,13,31,8.10
2020,08,08,13,32,4.80
2020,08,08,13,33,1.60
2020,08,08,13,34,8.10
2020,08,08,13,35,11.30
2020,08,08,13,36,9.60
2020,08,08,13,37,4.80
2020,08,08,13,38,4.80
2020,08,08,13,39,11.30
2020,08,08,13,40,6.40
2020,08,08,13,41,4.80
2020,08,08,13,42,3.20
2020,08,08,13,43,3.20
2020,08,08,13,44,3.20
2020,08,08,13,45,1.60
2020,08,08,13,46,3.20
2020,08,08,13,47,6.40
2020,08,08,13,48,4.80
2020,08,08,13,49,4.80
2020,08,08,13,50,3.20
2020,08,08,13,51,3.20
2020,08,08,13,52,4.80
2020,08,08,13,53,3.20
2020,08,08,13,54,3.20
2020,08,08,13,55,8.10
2020,08,08,13,56,4.80
2020,08,08,13,57,6.40
2020,08,08,13,58,4.80
2020,08,08,13,59,3.20
2020,08,08,14,00,1.60
2020,08,08,14,01,3.20
2020,08,08,14,02,1.60
2020,08,08,14,03,1.60
2020,08,08,14,04,3.20
2020,08,08,14,05,3.20
2020,08,08,14,06,4.80
2020,08,08,14,07,8.10
2020,08,08,14,08,8.10
2020,08,08,14,09,3.20
2020,08,08,14,10,1.60
2020,08,08,14,11,1.60
2020,08,08,14,12,4.80
2020,08,08,14,13,4.80
2020,08,08,14,14,3.20
2020,08,08,14,15,4.80
2020,08,08,14,16,4.80
2020,08,08,14,17,3.20
2020,08,08,14,18,8.10
2020,08,08,14,19,4.80
2020,08,08,14,20,3.20
2020,08,08,14,21,4.80
2020,08,08,14,22,6.40
2020,08,08,14,23,3.20
2020,08,08,14,26,1.60
2020,08,08,14,27,1.60
2020,08,08,14,28,1.60
2020,08,08,14,30,1.60
2020,08,08,14,31,1.60
2020,08,08,14,32,1.60
2020,08,08,14,33,4.80
2020,08,08,14,34,3.20
2020,08,08,14,35,3.20
2020,08,08,14,36,4.80
2020,08,08,14,37,3.20
2020,08,08,14,38,1.60
2020,08,08,14,39,6.40
2020,08,08,14,40,9.60
2020,08,08,14,41,8.10
2020,08,08,14,42,8.10
2020,08,08,14,43,11.30
2020,08,08,14,44,11.30
2020,08,08,14,45,4.80
2020,08,08,14,46,3.20
2020,08,08,14,47,11.30
2020,08,08,14,48,11.30
2020,08,08,14,49,9.60
2020,08,08,14,50,14.50
2020,08,08,14,51,17.70
2020,08,08,14,52,8.10
2020,08,08,14,53,11.30
2020,08,08,14,54,6.40
2020,08,08,14,55,8.10
2020,08,08,14,56,6.40
2020,08,08,14,57,6.40
2020,08,08,14,58,4.80
2020,08,08,14,59,6.40
2020,08,08,15,00,6.40
2020,08,08,15,01,8.10
2020,08,08,15,02,4.80
2020,08,08,15,03,3.20
2020,08,08,15,04,3.20
2020,08,08,15,05,1.60
2020,08,08,15,06,3.20
2020,08,08,15,07,3.20
2020,08,08,15,08,4.80
2020,08,08,15,09,9.60
2020,08,08,15,10,9.60
2020,08,08,15,11,8.10
2020,08,08,15,12,8.10
2020,08,08,15,13,4.80
2020,08,08,15,14,3.20
2020,08,08,15,15,3.20
2020,08,08,15,16,8.10
2020,08,08,15,17,8.10
2020,08,08,15,18,8.10
2020,08,08,15,19,8.10
2020,08,08,15,20,6.40
2020,08,08,15,22,4.80
2020,08,08,15,23,4.80
2020,08,08,15,24,4.80
2020,08,08,15,25,8.10
2020,08,08,15,26,6.40
2020,08,08,15,27,3.20
2020,08,08,15,28,3.20
2020,08,08,15,29,6.40
2020,08,08,15,30,6.40
2020,08,08,15,31,4.80
2020,08,08,15,32,1.60
2020,08,08,15,33,4.80
2020,08,08,15,34,3.20
2020,08,08,15,35,3.20
2020,08,08,15,36,3.20
2020,08,08,15,37,1.60
2020,08,08,15,38,1.60
2020,08,08,15,39,1.60
2020,08,08,15,40,6.40
2020,08,08,15,41,3.20
2020,08,08,15,42,1.60
2020,08,08,15,43,4.80
2020,08,08,15,44,4.80
2020,08,08,15,45,8.10
2020,08,08,15,46,4.80
2020,08,08,15,47,8.10
2020,08,08,15,48,8.10
2020,08,08,15,49,8.10
2020,08,08,15,50,6.40
2020,08,08,15,51,8.10
2020,08,08,15,52,4.80
2020,08,08,15,53,3.20
2020,08,08,15,54,3.20
2020,08,08,15,55,4.80
2020,08,08,15,56,6.40
2020,08,08,15,57,8.10
2020,08,08,15,58,6.40
2020,08,08,15,59,11.30
2020,08,08,16,00,8.10
2020,08,08,16,01,4.80
2020,08,08,16,02,6.40
2020,08,08,16,03,4.80
2020,08,08,16,04,4.80
2020,08,08,16,05,9.60
2020,08,08,16,06,3.20
2020,08,08,16,07,4.80
2020,08,08,16,08,4.80
2020,08,08,16,09,6.40
2020,08,08,16,10,4.80
2020,08,08,16,11,3.20
2020,08,08,16,12,8.10
2020,08,08,16,13,1.60
2020,08,08,16,14,6.40
2020,08,08,16,15,4.80
2020,08,08,16,16,8.10
2020,08,08,16,17,6.40
2020,08,08,16,18,9.60
2020,08,08,16,19,9.60
2020,08,08,16,20,8.10
2020,08,08,16,21,8.10
2020,08,08,16,22,8.10
2020,08,08,16,23,11.30
2020,08,08,16,24,4.80
2020,08,08,16,25,3.20
2020,08,08,16,26,11.30
2020,08,08,16,27,6.40
2020,08,08,16,28,8.10
2020,08,08,16,29,8.10
2020,08,08,16,30,4.80
2020,08,08,16,31,4.80
2020,08,08,16,32,9.60
2020,08,08,16,33,8.10
2020,08,08,16,34,6.40
2020,08,08,16,35,4.80
2020,08,08,16,36,11.30
2020,08,08,16,37,4.80
2020,08,08,16,38,11.30
2020,08,08,16,39,6.40
2020,08,08,16,40,6.40
2020,08,08,16,41,6.40
2020,08,08,16,42,8.10
2020,08,08,16,43,4.80
2020,08,08,16,44,3.20
2020,08,08,16,45,4.80
2020,08,08,16,46,4.80
2020,08,08,16,47,11.30
2020,08,08,16,48,11.30
2020,08,08,16,49,9.60
2020,08,08,16,50,6.40
2020,08,08,16,51,8.10
2020,08,08,16,52,4.80
2020,08,08,16,53,8.10
2020,08,08,16,54,9.60
2020,08,08,16,55,11.30
2020,08,08,16,56,12.90
2020,08,08,16,57,14.50
2020,08,08,16,58,14.50
2020,08,08,16,59,12.90
2020,08,08,17,00,12.90
2020,08,08,17,01,11.30
2020,08,08,17,02,4.80
2020,08,08,17,03,6.40
2020,08,08,17,04,6.40
2020,08,08,17,05,4.80
2020,08,08,17,06,9.60
2020,08,08,17,07,6.40
2020,08,08,17,08,8.10
2020,08,08,17,09,11.30
2020,08,08,17,10,12.90
2020,08,08,17,11,8.10
2020,08,08,17,12,9.60
2020,08,08,17,13,6.40
2020,08,08,17,14,8.10
2020,08,08,17,15,8.10
2020,08,08,17,16,6.40
2020,08,08,17,17,8.10
2020,08,08,17,18,6.40
2020,08,08,17,19,6.40
2020,08,08,17,20,4.80
2020,08,08,17,21,8.10
2020,08,08,17,22,4.80
2020,08,08,17,23,11.30
2020,08,08,17,24,11.30
2020,08,08,17,25,8.10
2020,08,08,17,26,9.60
2020,08,08,17,27,6.40
2020,08,08,17,28,9.60
2020,08,08,17,29,8.10
2020,08,08,17,30,3.20
2020,08,08,17,31,6.40
2020,08,08,17,32,3.20
2020,08,08,17,33,11.30
2020,08,08,17,34,9.60
2020,08,08,17,35,11.30
2020,08,08,17,36,11.30
2020,08,08,17,37,11.30
2020,08,08,17,38,8.10
2020,08,08,17,39,6.40
2020,08,08,17,40,12.90
2020,08,08,17,41,8.10
2020,08,08,17,42,6.40
2020,08,08,17,43,3.20
2020,08,08,17,44,8.10
2020,08,08,17,45,11.30
2020,08,08,17,46,12.90
2020,08,08,17,47,6.40
2020,08,08,17,48,8.10
2020,08,08,17,49,8.10
2020,08,08,17,50,4.80
2020,08,08,17,51,6.40
2020,08,08,17,52,6.40
2020,08,08,17,53,8.10
2020,08,08,17,54,8.10
2020,08,08,17,55,11.30
2020,08,08,17,56,8.10
2020,08,08,17,57,8.10
2020,08,08,17,58,9.60
2020,08,08,17,59,12.90
2020,08,08,18,00,6.40
2020,08,08,18,01,9.60
2020,08,08,18,02,11.30
2020,08,08,18,03,8.10
2020,08,08,18,04,8.10
2020,08,08,18,05,11.30
2020,08,08,18,06,6.40
2020,08,08,18,07,3.20
2020,08,08,18,08,8.10
2020,08,08,18,09,8.10
2020,08,08,18,10,9.60
2020,08,08,18,11,8.10
2020,08,08,18,12,6.40
2020,08,08,18,13,8.10
2020,08,08,18,14,14.50
2020,08,08,18,15,12.90
2020,08,08,18,16,12.90
2020,08,08,18,17,14.50
2020,08,08,18,18,11.30
2020,08,08,18,19,11.30
2020,08,08,18,20,11.30
2020,08,08,18,21,11.30
2020,08,08,18,22,8.10
2020,08,08,18,23,9.60
2020,08,08,18,24,11.30
2020,08,08,18,25,11.30
2020,08,08,18,26,9.60
2020,08,08,18,27,11.30
2020,08,08,18,28,9.60
2020,08,08,18,29,8.10
2020,08,08,18,30,6.40
2020,08,08,18,31,8.10
2020,08,08,18,32,4.80
2020,08,08,18,33,8.10
2020,08,08,18,34,6.40
2020,08,08,18,35,6.40
2020,08,08,18,36,8.10
2020,08,08,18,37,4.80
2020,08,08,18,38,1.60
2020,08,08,18,39,1.60
2020,08,08,18,40,1.60
2020,08,08,18,41,1.60
2020,08,08,18,42,1.60
2020,08,08,18,43,4.80
2020,08,08,18,44,1.60
2020,08,08,18,45,3.20
2020,08,08,18,46,1.60
2020,08,08,18,47,1.60
2020,08,08,18,48,3.20
2020,08,08,18,51,1.60
2020,08,08,18,52,1.60
2020,08,08,18,53,4.80
2020,08,08,18,54,6.40
2020,08,08,18,55,3.20
2020,08,08,19,02,1.60
2020,08,08,19,03,3.20
2020,08,08,19,04,1.60
2020,08,08,19,05,1.60
2020,08,08,19,06,1.60
2020,08,08,19,09,1.60
2020,08,08,19,10,1.60
2020,08,08,19,11,3.20
2020,08,08,19,12,4.80
2020,08,08,19,13,6.40
2020,08,08,19,14,4.80
2020,08,08,19,15,6.40
2020,08,08,19,16,4.80
2020,08,08,19,17,4.80
2020,08,08,19,18,6.40
2020,08,08,19,19,4.80
2020,08,08,19,20,6.40
2020,08,08,19,21,4.80
2020,08,08,19,22,6.40
2020,08,08,19,23,4.80
2020,08,08,19,24,4.80
2020,08,08,19,25,4.80
2020,08,08,19,26,4.80
2020,08,08,19,27,6.40
2020,08,08,19,28,4.80
2020,08,08,19,29,1.60
2020,08,08,19,30,6.40
2020,08,08,19,31,8.10
2020,08,08,19,32,6.40
2020,08,08,19,33,4.80
2020,08,08,19,34,9.60
2020,08,08,19,35,4.80
2020,08,08,19,36,4.80
2020,08,08,19,37,4.80
2020,08,08,19,38,3.20
2020,08,08,19,39,3.20
2020,08,08,19,40,3.20
2020,08,08,19,41,3.20
2020,08,08,19,42,1.60
2020,08,08,19,43,1.60
2020,08,08,19,44,3.20
2020,08,08,19,45,4.80
2020,08,08,19,46,3.20
2020,08,08,19,47,3.20
2020,08,08,19,48,4.80
2020,08,08,19,49,6.40
2020,08,08,19,50,6.40
2020,08,08,19,51,4.80
2020,08,08,19,52,4.80
2020,08,08,19,53,3.20
2020,08,08,19,54,6.40
2020,08,08,19,55,6.40
2020,08,08,19,56,6.40
2020,08,08,19,57,8.10
2020,08,08,19,58,6.40
2020,08,08,19,59,4.80
2020,08,08,20,00,4.80
2020,08,08,20,01,4.80
2020,08,08,20,02,4.80
2020,08,08,20,03,3.20
2020,08,08,20,04,3.20
2020,08,08,20,05,4.80
2020,08,08,20,06,6.40
2020,08,08,20,07,4.80
2020,08,08,20,08,3.20
2020,08,08,20,09,3.20
2020,08,08,20,10,3.20
2020,08,08,20,11,3.20
2020,08,08,20,12,3.20
2020,08,08,20,13,1.60
2020,08,08,20,41,1.60
